SBIRS GEO-4 (USA 273)

Last updated on Tue Sep 22 2026 00:03:14 GMT+0000 (Coordinated Universal Time)

1 41937U 17004A 26264.41358367 -.00000168 00000+0 00000+0 0 9997 2 41937 2.4300 45.4505 0001989 116.8670 325.6733 1.00273109 35565
UTC large
Height (km)
Speed (km/s)
/
Latitude / Longitude
Inclination (degrees)
Orbital Period (minutes)
Azimuth
Elevation
Range (km)
Doppler Factor

Next 0 passes for location: London (51.5072 / 0.1276)

No passes found over London.
SBIRS GEO-4 (USA 273)